Location: ??????
(41.3164°N, 22.6615°E)
Time: 00:08:26
(UTC+00:00)

SL-19 R/B - Pass Details

Date: 16 October 2021
Orbit: 874 x 1209 km, 100.6° (Epoch: 02 December)

Event Time Altitude Azimuth Distance (km) Brightness Sun altitude
Rises 16:20:42 0° 15° (NNE) 3,624 7.3 -7.1°
Reaches altitude 10° 16:23:11 10° 16° (NNE) 2,637 6.6 -7.6°
Maximum altitude 16:29:01 89° 290° (WNW) 898 4.4 -8.7°
Drops below altitude 10° 16:34:34 10° 198° (SSW) 2,519 7.0 -9.7°
Sets 16:36:54 0° 198° (SSW) 3,450 7.7 -10.1°
